Wind_Speed
18 19 19 20 19 20 21 23 24 25 27 29 32 32 33 31 29 27 27 26 25 25 25 26 27 25 24 21 13 21 21 19 20 21 23 26 27 26 25 26 29 24 26 24 23 20 23
19 20 22 23 23 25 27 27 28 27 26 25 25 28 31 34 36 36 34 32 33 30 30 30 31 32 31 25 26 25 26 24 24 24 25 26 27 29 27 25 26 23 23 26 25 22 23
25 25 26 28 29 30 31 32 34 36 37 39 37 36 32 32 35 36 39 40 38 38 37 35 36 36 37 26 31 33 32 29 30 30 29 30 30 30 29 28 27 28 27 27 22 26 23
29 31 34 36 37 38 38 39 41 42 42 42 42 44 44 42 39 39 37 38 43 44 42 44 42 43 37 35 38 36 37 36 35 34 33 33 34 35 34 32 32 32 31 28 24 27 26
33 35 37 39 40 42 44 45 45 45 46 48 50 51 50 51 50 49 46 45 43 46 48 48 48 51 43 38 41 42 43 41 42 40 39 38 37 35 35 32 34 31 27 28 31 29 31
39 41 42 43 44 46 49 50 51 51 54 54 52 53 55 57 57 56 55 53 52 51 49 50 52 52 52 44 42 46 47 48 46 46 46 44 43 42 37 37 30 28 29 31 33 31 34
44 46 46 47 49 52 53 55 59 61 62 64 63 62 60 59 61 63 64 60 61 60 56 54 52 51 56 54 50 48 48 52 52 52 50 48 51 45 36 36 33 37 39 36 36 41 37
50 53 55 57 59 60 62 64 66 68 71 73 74 75 71 67 61 65 66 68 67 69 68 61 59 55 53 53 54 56 53 53 55 52 52 58 54 44 43 44 43 43 43 40 39 42 41
52 54 56 58 61 62 64 66 69 70 72 76 80 80 78 77 70 65 68 73 74 75 78 70 66 63 60 59 53 56 61 59 56 56 55 58 53 51 52 48 49 46 45 43 42 46 46
56 59 61 64 67 68 71 74 76 78 81 85 89 89 87 83 71 68 64 66 75 83 86 73 73 71 69 68 63 54 56 63 65 60 55 61 56 55 56 54 51 50 46 46 45 49 48
59 63 67 69 73 73 76 79 80 81 84 90 93 94 92 87 88 79 78 75 84 87 92 74 77 77 75 74 68 61 57 59 67 66 61 61 57 54 58 51 50 52 51 50 50 51 53
62 68 72 74 75 75 79 80 81 87 95 102 101 84 78 74 79 82 85 86 90 88 93 81 82 81 81 79 76 75 66 61 62 68 69 64 63 58 57 54 54 55 53 51 53 54 63
70 74 76 77 76 79 80 80 88 97 105 103 77 68 71 68 62 61 63 67 74 82 85 86 87 85 81 84 81 80 76 69 62 65 70 69 68 61 56 55 56 59 55 54 58 61 62
75 77 80 79 81 79 83 92 100 108 112 87 68 62 59 53 48 48 50 51 56 59 62 72 63 73 82 74 71 73 74 71 60 58 63 67 70 70 62 58 53 54 53 56 60 61 59
78 81 80 80 79 86 94 100 109 113 89 72 62 56 52 45 40 31 35 41 45 37 31 39 45 43 49 56 64 63 58 64 66 56 55 56 61 65 66 65 61 60 63 51 59 61 63
82 80 80 80 86 94 103 111 111 89 75 67 57 50 44 34 30 32 32 30 27 25 32 46 47 47 60 55 55 59 54 66 63 53 49 51 55 55 54 58 64 64 62 59 64 65 63
81 80 79 85 93 100 108 109 90 77 70 63 51 47 33 30 25 28 31 30 30 26 30 30 47 48 37 48 53 66 62 51 58 57 53 51 52 57 55 53 55 57 61 61 62 63 63
81 80 84 92 99 107 111 96 80 69 64 55 49 42 30 27 22 22 17 25 30 30 28 30 29 58 45 41 50 46 71 56 48 58 62 53 52 55 52 53 51 51 52 53 57 58 56
80 83 88 95 104 109 107 89 75 64 48 38 36 37 30 23 22 20 24 28 29 29 30 20 26 46 55 57 45 46 58 76 71 55 59 58 52 48 52 60 61 61 59 55 51 50 56
82 86 92 99 106 108 93 81 63 50 33 32 39 37 34 26 24 23 26 31 33 32 28 17 13 40 39 41 51 47 50 53 67 62 60 55 58 57 56 50 50 55 57 55 54 57 56
84 89 96 102 108 107 95 81 65 39 24 24 37 36 36 31 28 23 27 30 33 35 35 39 18 33 52 29 51 68 50 43 49 59 63 57 49 62 63 58 44 55 54 55 54 54 56
87 93 98 102 102 95 85 75 63 36 21 25 27 32 36 32 31 32 33 27 35 34 39 38 37 21 36 50 39 54 79 72 53 53 59 62 41 44 60 62 63 53 57 57 58 58 60
90 95 98 96 91 82 72 66 59 34 22 24 24 23 38 27 33 37 40 30 30 36 35 39 41 38 27 50 58 36 49 68 64 64 56 56 63 54 52 52 62 63 69 67 70 64 58
92 96 95 88 81 69 61 65 64 38 23 24 25 29 31 31 30 32 33 30 26 27 35 40 39 44 28 30 54 63 45 46 45 50 54 55 55 53 57 49 52 55 65 64 63 65 64
92 93 88 79 68 55 58 62 67 55 27 26 24 28 29 26 25 26 27 31 27 27 31 37 39 42 38 27 17 45 59 52 55 51 51 48 44 44 49 62 46 48 47 46 52 41 41
90 86 80 70 55 53 54 57 62 66 29 16 22 21 19 32 22 23 28 27 27 25 23 29 40 39 45 40 27 15 24 33 33 52 69 65 56 52 45 50 50 43 38 42 40 43 23
85 84 71 62 50 48 51 56 59 61 54 23 24 23 22 24 19 22 25 19 19 20 20 22 37 37 40 40 35 22 18 36 22 15 25 51 69 69 63 59 58 47 37 36 32 31 33
83 75 65 56 48 46 54 58 56 56 57 44 28 25 24 26 23 23 19 14 21 22 20 17 24 26 34 33 36 43 29 30 36 17 3 25 32 51 60 58 60 63 60 55 47 48 41
76 68 62 54 45 45 52 53 52 53 57 49 32 25 21 18 15 12 7 16 22 26 25 19 17 20 28 30 30 37 43 37 33 23 13 19 31 42 40 43 42 53 53 48 44 37 35
Wind_Direction
339 329 329 329 327 320 312 310 310 306 307 306 304 301 297 291 284 279 278 278 274 271 263 263 261 254 249 250 250 235 232 228 227 224 227 233 234 235 230 229 231 226 231 233 238 236 243
326 324 323 322 319 317 316 317 312 309 309 305 301 298 295 294 293 287 280 273 272 269 266 259 255 256 251 244 238 245 242 238 234 230 228 227 230 231 231 233 236 237 239 241 242 244 247
320 316 314 311 309 306 306 306 306 307 308 308 306 302 296 292 288 285 284 278 272 267 265 262 259 249 250 248 244 243 246 240 241 234 233 238 236 235 237 237 240 241 237 242 245 249 251
310 307 305 302 300 296 295 295 294 293 294 293 293 292 290 288 284 281 278 279 276 271 263 262 261 257 245 249 249 245 244 242 242 241 240 238 238 237 236 237 239 242 243 243 244 252 253
315 314 311 309 304 300 299 298 296 294 293 290 285 283 282 280 279 278 274 271 271 273 268 262 260 258 254 246 252 248 247 244 242 241 241 241 243 243 244 247 243 244 251 254 251 248 256
324 320 316 313 310 309 307 305 303 300 297 293 288 285 279 277 274 271 270 269 266 263 264 265 263 262 260 251 249 250 246 246 246 244 240 240 240 238 237 243 249 254 253 259 264 260 259
322 321 320 318 317 314 311 309 308 306 303 300 297 292 284 275 272 271 268 265 263 261 257 260 261 260 259 254 249 250 249 248 244 244 246 246 244 240 243 244 244 250 255 256 258 262 263
323 323 322 322 318 315 312 309 306 303 301 298 296 292 285 281 274 269 270 267 261 261 256 252 254 256 257 255 248 249 251 250 248 246 246 247 245 246 246 245 244 247 253 257 258 261 261
319 318 317 315 312 309 307 305 302 297 295 293 291 287 284 283 281 274 268 267 265 261 257 251 250 251 253 252 250 247 249 251 250 247 243 248 248 247 245 244 244 243 248 252 255 259 262
316 313 313 313 311 309 308 305 302 301 299 295 292 291 291 290 290 282 265 260 260 261 256 250 249 248 248 249 252 247 244 249 252 251 250 246 243 246 244 244 245 246 247 249 252 256 262
314 312 311 310 310 310 311 307 305 304 301 296 293 293 297 297 294 282 268 253 248 249 251 249 249 244 243 245 251 246 246 242 246 250 251 249 248 247 249 248 248 248 246 249 249 253 258
313 312 312 313 312 311 309 309 308 304 300 296 303 308 299 283 273 265 258 250 246 255 252 243 242 244 243 242 243 246 241 242 242 246 248 248 251 245 244 245 246 247 247 249 251 251 254
313 315 317 316 312 311 310 308 303 301 300 310 313 299 293 291 284 278 272 267 262 262 256 244 243 244 245 237 238 240 241 241 242 243 245 247 250 250 247 244 243 248 248 251 251 250 256
317 319 318 314 312 313 309 307 307 308 312 319 312 304 304 298 288 276 271 269 263 260 254 260 263 257 250 247 241 239 238 238 234 237 241 241 244 247 248 249 249 250 250 250 255 257 260
319 318 316 316 315 313 312 312 313 316 320 317 312 311 309 301 289 276 269 264 269 271 259 249 241 232 254 252 255 251 237 236 236 236 240 245 245 248 248 249 247 245 246 250 253 254 258
321 319 320 319 317 316 317 319 321 322 317 315 313 313 309 302 285 265 259 270 276 262 249 230 222 225 227 229 238 246 248 239 235 233 234 241 244 244 244 244 246 247 248 245 247 251 253
321 322 323 321 319 320 321 323 326 319 315 313 313 312 312 309 295 269 259 257 249 251 245 244 227 223 221 238 236 234 237 232 228 226 227 232 245 243 241 241 245 244 245 244 246 249 252
323 324 323 323 323 325 326 330 326 320 315 314 311 310 318 313 301 274 263 268 254 246 238 274 252 222 221 217 228 238 236 228 225 225 226 232 238 245 240 240 240 239 241 240 239 245 251
326 325 325 326 328 329 332 333 329 319 318 312 306 311 318 322 314 278 245 233 251 243 234 260 254 220 220 238 216 234 237 234 239 239 226 221 223 230 238 235 235 236 237 244 245 246 246
326 327 328 330 332 333 334 336 331 319 312 310 309 306 312 321 323 305 274 252 245 245 248 220 242 216 225 224 227 226 235 230 238 243 236 229 227 232 243 245 244 243 246 248 248 248 251
328 330 332 335 335 335 338 341 340 326 306 295 297 303 303 315 320 326 298 278 254 244 245 237 221 229 228 241 220 228 225 219 236 238 240 242 235 231 232 234 243 238 238 241 244 249 250
331 335 336 337 338 338 342 346 347 337 301 295 299 305 306 316 309 320 325 292 272 257 247 247 234 236 238 235 236 226 230 235 230 234 239 241 223 224 237 236 240 240 242 246 243 245 251
335 338 340 340 338 342 348 352 352 339 315 301 290 296 300 304 312 307 317 309 285 269 250 254 249 233 241 232 231 226 223 229 235 236 235 244 245 241 241 249 251 244 245 248 245 248 256
338 340 342 341 341 345 355 359 357 339 310 299 287 287 292 280 300 307 314 310 305 292 271 251 257 241 227 219 228 222 218 212 221 229 235 240 243 247 248 258 257 252 253 250 250 252 253
340 343 344 341 344 352 357 1 2 352 311 308 301 283 288 290 291 315 314 316 308 293 279 263 254 252 238 219 228 231 230 237 234 232 226 229 235 240 247 249 262 256 254 254 259 260 264
342 345 344 341 345 348 355 356 358 359 325 317 324 299 296 267 298 306 317 315 309 301 282 273 260 255 247 241 237 207 219 226 239 235 238 241 243 243 247 251 249 248 254 245 254 262 262
344 346 342 343 344 347 355 357 356 352 356 301 306 302 302 302 301 305 319 325 328 321 298 276 255 256 255 251 243 227 206 204 198 192 225 237 240 247 246 252 255 244 258 265 257 262 270
347 345 341 343 344 347 352 351 351 348 351 350 294 291 292 297 304 306 304 296 317 321 323 300 269 267 258 253 247 241 221 205 202 200 196 212 235 243 248 254 256 255 259 264 268 274 279
347 344 342 343 342 346 351 354 352 348 347 350 342 278 292 299 305 311 311 300 329 325 330 321 292 277 251 245 245 247 234 217 224 242 225 208 210 218 225 233 243 252 253 257 263 263 262
Height
5825 5821 5818 5815 5813 5810 5806 5803 5801 5797 5794 5792 5790 5787 5785 5783 5781 5780 5778 5776 5774 5774 5772 5772 5771 5771 5771 5773 5775 5771 5771 5772 5772 5772 5772 5773 5774 5774 5776 5777 5777 5780 5782 5781 5782 5783 5784
5822 5819 5816 5813 5810 5806 5802 5799 5795 5791 5788 5786 5783 5781 5778 5777 5775 5773 5771 5770 5768 5766 5766 5764 5763 5762 5762 5767 5769 5766 5765 5767 5767 5767 5768 5768 5769 5769 5770 5772 5772 5774 5774 5775 5776 5778 5778
5820 5817 5813 5809 5805 5801 5797 5793 5789 5786 5784 5782 5779 5775 5772 5769 5767 5764 5763 5761 5759 5758 5756 5756 5755 5752 5754 5763 5760 5761 5759 5759 5760 5761 5761 5762 5761 5762 5763 5764 5765 5767 5769 5768 5772 5771 5772
5815 5811 5807 5803 5798 5793 5790 5786 5782 5778 5775 5772 5769 5765 5762 5759 5757 5755 5752 5750 5749 5747 5746 5746 5744 5743 5745 5751 5748 5752 5753 5753 5751 5751 5753 5754 5755 5756 5757 5760 5760 5761 5761 5763 5767 5765 5765
5811 5806 5801 5797 5792 5788 5784 5779 5774 5768 5764 5759 5755 5752 5750 5747 5744 5741 5740 5738 5736 5735 5734 5732 5733 5732 5737 5742 5741 5740 5741 5743 5743 5743 5743 5742 5743 5746 5748 5750 5751 5753 5757 5757 5758 5759 5757
5805 5799 5793 5788 5782 5776 5771 5765 5760 5754 5749 5744 5741 5738 5735 5729 5727 5724 5724 5723 5721 5720 5719 5719 5719 5721 5725 5731 5730 5728 5728 5729 5732 5733 5734 5735 5734 5736 5740 5742 5748 5749 5747 5745 5746 5751 5750
5793 5789 5784 5778 5772 5766 5759 5753 5746 5741 5735 5730 5726 5722 5718 5716 5711 5707 5705 5705 5703 5703 5702 5705 5705 5707 5707 5712 5718 5717 5719 5717 5718 5720 5723 5724 5720 5726 5735 5734 5735 5734 5734 5740 5742 5739 5743
5785 5778 5770 5764 5757 5752 5746 5740 5734 5727 5720 5713 5707 5701 5696 5693 5692 5688 5684 5682 5679 5678 5680 5686 5688 5690 5694 5694 5700 5704 5706 5707 5706 5710 5711 5708 5710 5722 5723 5722 5724 5725 5727 5732 5734 5731 5733
5776 5768 5762 5756 5749 5743 5735 5728 5719 5710 5702 5693 5686 5678 5673 5672 5669 5668 5663 5660 5655 5650 5648 5666 5671 5674 5677 5676 5681 5687 5690 5693 5694 5696 5696 5696 5709 5711 5708 5713 5714 5717 5718 5723 5724 5719 5722
5768 5761 5752 5744 5736 5728 5721 5711 5702 5693 5684 5673 5660 5649 5643 5640 5645 5637 5634 5633 5629 5623 5616 5642 5649 5655 5657 5660 5659 5669 5674 5678 5677 5683 5688 5680 5691 5697 5699 5701 5705 5707 5712 5711 5713 5709 5713
5757 5748 5741 5732 5723 5713 5704 5693 5682 5671 5660 5646 5632 5619 5615 5608 5615 5604 5597 5596 5593 5589 5574 5624 5621 5631 5636 5640 5650 5652 5655 5656 5660 5668 5673 5673 5680 5685 5684 5696 5696 5695 5699 5701 5702 5701 5699
5747 5739 5728 5718 5707 5697 5686 5676 5665 5653 5638 5620 5601 5588 5577 5573 5560 5553 5553 5553 5555 5550 5543 5593 5592 5599 5608 5619 5626 5626 5636 5638 5645 5646 5654 5661 5660 5667 5673 5679 5682 5684 5688 5690 5690 5690 5679
5734 5725 5715 5702 5692 5681 5669 5655 5639 5622 5603 5584 5570 5556 5539 5533 5532 5522 5523 5525 5529 5525 5540 5554 5566 5573 5578 5588 5598 5605 5612 5618 5627 5631 5636 5648 5647 5656 5661 5666 5668 5670 5677 5679 5677 5673 5672
5722 5712 5701 5689 5678 5663 5648 5632 5612 5592 5571 5557 5546 5532 5521 5511 5507 5504 5504 5503 5501 5515 5524 5540 5548 5553 5555 5570 5575 5578 5588 5598 5608 5618 5618 5624 5628 5636 5649 5653 5661 5661 5664 5667 5663 5664 5668
5709 5697 5684 5673 5658 5643 5624 5604 5584 5563 5543 5532 5524 5515 5501 5498 5493 5490 5489 5488 5494 5504 5513 5518 5525 5530 5539 5549 5558 5565 5569 5579 5593 5602 5608 5611 5614 5619 5632 5638 5644 5645 5642 5663 5652 5653 5652
5696 5683 5671 5656 5640 5621 5602 5580 5555 5533 5521 5512 5507 5504 5490 5487 5481 5479 5480 5482 5487 5491 5490 5495 5496 5507 5517 5530 5540 5547 5554 5569 5578 5587 5595 5598 5597 5601 5609 5618 5624 5629 5636 5641 5636 5637 5641
5682 5669 5654 5638 5620 5601 5578 5552 5530 5514 5502 5494 5492 5488 5480 5475 5473 5471 5472 5475 5476 5481 5481 5484 5492 5495 5504 5515 5520 5527 5540 5555 5560 5569 5575 5585 5582 5585 5593 5603 5612 5617 5619 5625 5628 5629 5630
5670 5656 5640 5622 5602 5579 5555 5531 5514 5500 5486 5478 5475 5475 5472 5467 5466 5463 5466 5464 5468 5470 5472 5473 5477 5487 5495 5502 5507 5517 5526 5541 5545 5554 5556 5570 5572 5568 5583 5589 5597 5603 5607 5610 5611 5616 5622
5657 5642 5624 5605 5584 5559 5534 5513 5497 5483 5475 5466 5462 5466 5466 5461 5458 5457 5457 5457 5457 5460 5464 5465 5466 5468 5480 5485 5497 5509 5513 5524 5533 5540 5544 5545 5549 5559 5559 5571 5580 5585 5595 5600 5606 5608 5606
5643 5627 5609 5588 5566 5544 5520 5500 5483 5472 5467 5461 5457 5455 5457 5457 5454 5451 5450 5451 5451 5451 5453 5454 5455 5459 5466 5473 5479 5492 5500 5507 5516 5523 5527 5532 5542 5548 5557 5566 5571 5576 5585 5590 5593 5595 5603
5630 5612 5593 5573 5549 5526 5505 5487 5472 5460 5458 5458 5454 5452 5450 5452 5452 5448 5444 5442 5441 5442 5444 5445 5448 5451 5453 5460 5468 5470 5475 5486 5496 5503 5513 5522 5531 5535 5544 5546 5551 5561 5568 5574 5579 5589 5588
5617 5600 5579 5560 5536 5514 5494 5476 5459 5453 5451 5450 5449 5447 5445 5446 5445 5442 5441 5438 5433 5435 5437 5439 5441 5445 5444 5448 5455 5460 5460 5467 5477 5490 5500 5511 5520 5525 5530 5537 5541 5545 5553 5560 5570 5576 5576
5605 5587 5567 5545 5525 5505 5488 5473 5459 5451 5447 5443 5444 5441 5440 5442 5441 5438 5436 5433 5428 5426 5431 5431 5432 5436 5438 5438 5443 5450 5451 5463 5474 5482 5492 5500 5509 5515 5521 5530 5530 5527 5546 5551 5557 5562 5569
5594 5577 5555 5535 5517 5501 5485 5472 5457 5449 5445 5439 5436 5434 5433 5433 5435 5434 5430 5428 5424 5420 5419 5423 5425 5427 5433 5434 5435 5443 5450 5458 5470 5478 5485 5494 5501 5505 5513 5514 5513 5526 5535 5541 5542 5549 5554
5585 5565 5545 5528 5511 5496 5484 5471 5459 5448 5440 5437 5433 5429 5424 5430 5431 5429 5425 5423 5419 5415 5413 5414 5420 5420 5424 5430 5435 5437 5444 5457 5465 5469 5476 5483 5488 5495 5499 5504 5508 5517 5523 5529 5531 5537 5541
5573 5554 5537 5522 5507 5496 5484 5471 5459 5450 5439 5433 5430 5427 5424 5423 5427 5423 5421 5417 5413 5409 5410 5408 5410 5415 5417 5424 5430 5433 5439 5447 5451 5453 5464 5469 5475 5481 5486 5491 5497 5512 5513 5515 5519 5521 5530
5563 5546 5531 5517 5504 5495 5484 5471 5460 5451 5440 5431 5426 5423 5421 5421 5421 5418 5416 5414 5409 5406 5404 5405 5403 5408 5410 5416 5424 5429 5430 5437 5442 5445 5451 5455 5463 5468 5480 5480 5486 5506 5508 5508 5510 5519 5515
5556 5539 5525 5513 5502 5493 5483 5471 5459 5449 5439 5427 5420 5419 5418 5417 5418 5414 5412 5411 5408 5404 5401 5400 5399 5401 5404 5411 5416 5418 5424 5427 5435 5437 5439 5447 5454 5461 5469 5471 5481 5492 5492 5496 5501 5497 5501
5547 5533 5521 5508 5497 5489 5481 5470 5459 5448 5437 5425 5415 5411 5411 5411 5413 5411 5409 5407 5405 5401 5397 5396 5393 5393 5397 5401 5404 5410 5417 5423 5427 5431 5437 5441 5441 5447 5450 5460 5467 5473 5475 5480 5487 5489 5490